EW1895 Weather Reports


time (UTC)temp
C
wind
direction
speed
KPH
gust
KPH
rain 1hr
cm
rain 24hr
cm
rain mn
cm
humidity
%
barometer
mb
20260905091505 20 151 0.0 0.0 0.00 0.00 0.00 96 1010.7
20260905090004 20 151 0.0 0.0 0.00 0.00 0.00 96 1010.7
20260905084501 20 151 0.0 0.0 0.00 0.00 0.00 96 1010.6
20260905083100 20 151 0.0 0.0 0.00 0.00 0.00 96 1010.7
20260905081605 20 151 0.0 0.0 0.00 0.00 0.00 96 1010.8
20260905074558 20 151 0.0 0.0 0.00 0.00 0.00 96 1011.0
20260905073057 20 151 0.0 0.0 0.00 0.00 0.00 96 1011.2
20260905071557 20 151 0.0 0.0 0.00 0.00 0.00 96 1011.3
20260905070059 21 151 0.0 0.0 0.00 0.00 0.00 96 1011.4
20260905064600 21 151 0.0 0.0 0.00 0.00 0.00 96 1011.4
20260905063101 20 151 0.0 0.0 0.00 0.00 0.00 96 1011.4
20260905061609 20 151 0.0 0.0 0.00 0.00 0.00 96 1011.8
20260905060051 21 151 0.0 0.0 0.00 0.00 0.00 96 1012.0
20260905054549 20 151 0.0 0.0 0.00 0.00 0.00 96 1012.2
20260905053053 20 151 0.0 0.0 0.00 0.00 0.00 96 1012.7
20260905051546 21 151 0.0 0.0 0.00 0.00 0.00 96 1012.9
20260905050043 21 151 0.0 0.0 0.00 0.00 0.00 96 1013.0
20260905044541 21 151 0.0 0.0 0.00 0.00 0.00 96 1013.3
20260905043040 21 151 0.0 0.0 0.00 0.00 0.00 96 1013.5
20260905041537 21 151 0.0 0.0 0.00 0.00 0.00 96 1013.6
20260905040036 21 151 0.0 0.0 0.00 0.00 0.00 96 1013.6
20260905034535 21 151 0.0 0.0 0.00 0.00 0.00 96 1013.6
20260905033036 21 151 0.0 0.0 0.00 0.00 0.00 96 1013.6
20260905031531 21 151 0.0 0.0 0.00 0.00 0.00 96 1013.6
20260905030034 21 151 0.0 0.0 0.00 0.00 0.00 96 1013.6
20260905023012 21 151 0.0 0.0 0.00 0.00 0.00 96 1013.6
20260905021510 21 151 0.0 0.0 0.00 0.00 0.00 95 1013.6
20260905020020 21 151 0.0 0.0 0.00 0.00 0.00 95 1013.6
20260905014508 20 151 0.0 0.0 0.00 0.00 0.00 95 1013.1
20260905013005 21 151 0.0 0.0 0.00 0.00 0.00 95 1012.8
20260905011505 21 151 0.0 0.0 0.00 0.00 0.00 95 1012.5
20260905010006 21 151 0.0 0.0 0.00 0.00 0.00 95 1012.5
20260905004504 21 151 0.0 0.0 0.00 0.00 0.00 95 1012.5
20260905003101 21 151 0.0 0.0 0.00 0.00 0.00 95 1012.4
20260905001557 21 151 0.0 0.0 0.00 0.00 0.00 95 1011.7
20260904210023 27 337 14.5 32.2 0.00 0.00 0.00 75 1012.9
20260904204508 36 286 3.2 14.5 0.00 0.00 0.00 58 1012.2
20260904201507 37 241 0.0 1.6 0.00 0.00 0.00 50 1011.1
20260904200005 37 123 0.0 1.6 0.00 0.00 0.00 50 1011.3
20260904194502 37 252 0.0 0.0 0.00 0.00 0.00 50 1011.9
20260904191556 38 202 0.0 0.0 0.00 0.00 0.00 45 1012.3
20260904190055 37 202 0.0 0.0 0.00 0.00 0.00 48 1012.3
20260904184549 37 281 0.0 0.0 0.00 0.00 0.00 49 1012.6
20260904181549 37 340 0.0 1.6 0.00 0.00 0.00 50 1013.2
20260904180040 36 322 0.0 0.0 0.00 0.00 0.00 52 1013.5
20260904174542 36 332 0.0 1.6 0.00 0.00 0.00 53 1013.6
20260904171632 36 161 0.0 1.6 0.00 0.00 0.00 51 1013.9
20260904170031 36 232 0.0 0.0 0.00 0.00 0.00 52 1013.8
20260904164528 36 232 0.0 1.6 0.00 0.00 0.00 53 1013.9
20260904161532 35 246 0.0 1.6 0.00 0.00 0.00 56 1014.1
20260904160020 35 159 0.0 3.2 0.00 0.00 0.00 55 1014.3
20260904154516 35 324 0.0 4.8 0.00 0.00 0.00 57 1014.5
20260904151510 34 305 0.0 0.0 0.00 0.00 0.00 59 1014.4
20260904150016 33 305 0.0 0.0 0.00 0.00 0.00 62 1014.5
20260904144501 33 305 0.0 0.0 0.00 0.00 0.00 65 1014.4
20260904141558 31 305 0.0 0.0 0.00 0.00 0.00 72 1014.3
20260904140053 30 305 0.0 0.0 0.00 0.00 0.00 75 1014.2
20260904134549 28 305 0.0 0.0 0.00 0.00 0.00 80 1014.4
20260904131554 25 305 0.0 0.0 0.00 0.00 0.00 89 1014.3
20260904130040 25 305 0.0 0.0 0.00 0.00 0.00 91 1014.3
20260904124537 24 305 0.0 0.0 0.00 0.00 0.00 93 1014.2
20260904121537 23 305 0.0 0.0 0.00 0.00 0.00 93 1014.3
20260904120045 23 305 0.0 0.0 0.00 0.00 0.00 94 1014.2
20260904114536 22 305 0.0 0.0 0.00 0.00 0.00 94 1014.1
20260904111541 22 305 0.0 0.0 0.00 0.00 0.00 94 1014.0
20260904110034 22 305 0.0 0.0 0.00 0.00 0.00 94 1014.0
20260904104534 22 305 0.0 0.0 0.00 0.00 0.00 93 1013.9
20260904101531 22 305 0.0 0.0 0.00 0.00 0.00 92 1013.9
20260904100031 22 305 0.0 0.0 0.00 0.00 0.00 92 1014.0
20260904094530 22 305 0.0 0.0 0.00 0.00 0.00 92 1014.0